AirNav   Air Wisconsin Up To $57,000 Bonus
 
 893 users online  

5TX0 Hidden Valley Airpark
Shady Shores, Texas, USA

GOING TO SHADY SHORES?


FAA INFORMATION EFFECTIVE 25 MARCH 2021

Location

FAA Identifier: 5TX0
Lat/Long: 33-10-24.4310N 097-03-05.0340W
33-10.407183N 097-03.083900W
33.1734531,-97.0513983
(estimated)
Elevation: 611 ft. / 186 m (estimated)
Variation: 07E (1985)
From city: 3 miles NW of SHADY SHORES, TX
Time zone: UTC -5 (UTC -6 during Standard Time)
Zip code: 76208

Airport Operations

Airport use: Private use. Permission required prior to landing
Activation date: 11/1967
Control tower: no
ARTCC: FORT WORTH CENTER
FSS: FORT WORTH FLIGHT SERVICE STATION
Attendance: UNATNDD
Wind indicator: yes
Segmented circle: yes

Airport Communications

CTAF: 122.9
WX ASOS at DTO (8 nm W): 119.325 (940-383-8457)
WX AWOS-3 at ADS (16 nm SE): PHONE 972-386-4855
WX ASOS at DFW (17 nm S): PHONE 972-615-2608
WX ASOS at AFW (17 nm SW): PHONE 817-491-6188

Nearby radio navigation aids

VOR radial/distance  VOR name  Freq  Var
FUZr015/18.2RANGER VORTAC115.7006E
TTTr352/18.3MAVERICK VOR/DME113.1006E
CVEr330/18.5COWBOY VOR/DME116.2006E

 
NDB name  Hdg/Dist  Freq  Var  ID
PINCK128/9.825704EDT -.. -
MESQUITE307/34.224803EPQF .--. --.- ..-.

Airport Services

Fuel available: 100LL
FUEL CO-OP MEMBERS ONLY
Airframe service: NONE
Powerplant service: NONE

Runway Information

Runway 17/35

Dimensions: 2600 x 35 ft. / 792 x 11 m
Surface: asphalt
RUNWAY 17  RUNWAY 35
Traffic pattern: leftleft
Obstructions: none50 ft. trees, 2000 ft. from runway

Airport Ownership and Management from official FAA records

Ownership: Privately-owned
Owner: HIDDEN VALLEY HOA
99 HIDDEN VALLEY AIRPARK
DENTON, TX 76208
Phone 940-300-2443
Manager: JOHN WATSON/DAVID VALDEZ
114 HIDDEN VALLEY AIRPARK
DENTON, TX 76208
Phone 940-300-2443
ASST MANAGER: 817-939-6400

Airport Operational Statistics

Aircraft based on the field: 76
Single engine airplanes: 69
Multi engine airplanes: 5
Helicopters: 2
    

Additional Remarks

REMOTE CTL AIRFIELD AND REMOTE CTL OPS SOUTHWEST OF RWY END 35. REMOTE CTL PILOTS MNT UNICOM 122.9.
FOR CD CTC REGIONAL APCH AT 972-615-2799.

Instrument Procedures

There are no published instrument procedures at 5TX0.

Some nearby airports with instrument procedures:

KDTO - Denton Enterprise Airport (8 nm W)
KADS - Addison Airport (16 nm SE)
KDFW - Dallas-Fort Worth International Airport (17 nm S)
KAFW - Fort Worth Alliance Airport (17 nm SW)
KDAL - Dallas Love Field Airport (22 nm SE)
 
Loc | Ops | Rwys | IFR | FBO | Links
Com | Nav | Svcs | Stats | Notes

City of Fort Worth
 
Area around 5TX0 (Hidden Valley Airpark)
 
Road maps at: MapQuest Bing Google
 
Aerial photo
WARNING: Photo may not be current or correct
Aerial photo of 5TX0 (Hidden Valley Airpark)
Photo taken 06-Dec-2016
looking south

Do you have a better or more recent aerial photo of Hidden Valley Airpark that you would like to share? If so, please send us your photo.

 
Sectional chart

 
Airport distance calculator
Flying to Hidden Valley Airpark? Find the distance to fly.

From to 5TX0

Sunrise and sunset
Times for 15-Apr-2021
 Local
(UTC-5)
 Zulu
(UTC)
Morning civil twilight06:3411:34
Sunrise06:5911:59
Sunset19:5700:57
Evening civil twilight20:2301:23

Current date and time
Zulu (UTC)  16-Apr-2021 02:55:55
Local (UTC-5)  15-Apr-2021 21:55:55
 
METAR
KDTO 
8nm W 
160229Z 11004KT 10SM BKN016 OVC045 14/12 A2994 RMK AO2 RAE12 P0000 T01390122
KDFW 
16nm S 
160215Z 14009KT 7SM -RA FEW009 SCT065 OVC110 14/13 A2993 RMK AO2 WSHFT 0142 LTG DSNT SW P0004 T01390128
KADS 
17nm SE 
160237Z 11011KT 7SM RA BKN010 OVC080 14/13 A2991 RMK LTG DSNT S
KAFW 
18nm SW 
160153Z 13005KT 10SM BKN009 BKN041 OVC100 14/12 A2993 RMK AO2 LTG DSNT S RAE52 SLP132 P0009 T01390122
TAF
KDFW 
16nm S 
152106Z 1521/1624 07008KT 6SM -SHRA VCTS SCT050CB BKN080 FM152200 10011KT P6SM -SHRA VCTS OVC035CB FM160200 11010KT P6SM OVC025 FM160800 11010KT P6SM VCSH OVC009 FM161400 12011KT 3SM -SHRA BR VCTS OVC008CB FM162100 09009KT 5SM BR OVC015
KAFW 
18nm SW 
152106Z 1521/1618 07008KT 6SM -SHRA VCTS SCT050CB BKN080 FM152200 10011KT P6SM -SHRA VCTS OVC035CB FM160200 11010KT P6SM OVC025 FM160800 11010KT P6SM VCSH OVC009 FM161400 12011KT 3SM -SHRA BR VCTS OVC008CB
NOTAMs
Click for the latest NOTAMs
NOTAMs are issued by the DoD/FAA and will open in a separate window not controlled by AirNav.

 

 
 

Would you like to see your business listed on this page?

 If your business provides an interesting product or service to pilots, flight crews, aircraft, or users of the Hidden Valley Airpark, you should consider listing it here.  To start the listing process, click on the button below
 
Add a business
 

Other Pages about Hidden Valley Airpark

www.hiddenvalleyairpark.org
 
Update a link
 
Copyright © AirNav, LLC. All rights reserved. Privacy Policy  Contact